Find OneWeb SL0525

NORAD ID: 54143 Int'l Des: 2022-138 Owner: ONEWEBN Country: UK Constellation: oneweb operational
LEOCIRCULARPOLARONEWEB_TYPE

Live Position

Loading 3D Globe...

About OneWeb SL0525

Description loading...

Upcoming Passes

Passes for default location (London). Set your location on the main map for personalized predictions.

Altitude History

Loading altitude history...

Two-Line Element Set

1 54143U 22138AG 26103.86877979 .00000001 00000-0 -30915-4 0 9990
2 54143 87.9167 317.7888 0002009 84.0318 276.1044 13.19726777168340
Epoch: Apr 13, 2026 • Age: 18 hours

Current Status

Altitude 1189.6 km
Velocity 7.26 km/s
Sub-Earth Point -6.03°S, 110.63°W
Launch Date Oct 22, 2022
Age 3.4 years
Type internet

Technical Details

Classification Payload
Mass 148.00 kg
Dry Mass 140.00 kg
Total Mass 148.00 kg
Length 1.30 m
Diameter 1.00 m
Span 5.00 m
Shape Trapezoid+2 pan
Manufacturer ONEWUS
Bus Type ARROW
Phase Status In Orbit
Owner/State ONEWEBN/UK

Most Searched